Dewpoint
49 47 48 48 48 48 47 48 50 51 50 51 50 49 49 49 49 51 52 52 51 50 50 50 49 51 45 29 11 30 54 54 49 41 31 30 29 24 21 19 18 22 16 18 19 20 21
48 48 49 48 48 48 46 47 49 50 50 49 49 50 50 50 50 49 51 51 51 51 51 50 49 50 40 26 10 31 37 40 35 39 37 30 29 29 25 23 23 21 22 20 21 21 22
49 47 49 49 49 48 48 48 49 49 50 50 50 51 51 50 50 50 51 51 51 52 51 51 49 44 39 27 22 32 34 34 38 32 29 31 30 26 26 25 26 25 22 21 22 22 22
47 50 49 50 50 49 49 49 48 48 48 48 49 51 52 52 52 52 52 51 51 51 51 50 49 43 35 29 33 32 27 27 26 29 29 32 31 29 27 27 26 23 24 21 20 18 18
46 48 48 49 50 48 49 49 49 46 47 48 49 51 51 52 52 52 52 51 51 50 50 49 45 42 25 36 32 30 27 22 30 29 24 22 31 26 24 24 20 20 18 20 20 20 17
48 47 45 47 49 48 48 48 49 48 47 48 49 50 51 52 52 52 51 50 47 47 46 43 41 38 31 10 29 37 40 40 37 37 26 21 29 25 26 20 14 17 19 21 20 18 19
44 45 45 46 46 48 45 44 48 48 48 48 47 50 51 51 51 51 47 38 32 34 38 32 27 27 22 32 34 32 41 41 35 32 17 22 24 21 20 24 22 20 21 20 19 20 21
44 46 46 44 45 47 45 44 47 47 46 45 47 49 50 51 51 51 46 34 37 40 35 35 33 30 29 31 29 25 38 33 33 25 21 22 22 20 21 24 27 25 22 20 19 19 23
45 44 43 43 44 46 44 43 46 46 45 46 47 48 49 51 51 47 41 36 42 42 36 31 33 32 32 31 26 24 32 33 28 26 25 23 19 21 24 27 26 25 23 22 19 20 22
43 43 46 45 46 46 45 44 44 44 45 46 47 48 49 50 46 42 39 40 42 44 31 19 28 30 32 29 26 24 21 28 29 24 24 26 25 23 23 25 23 22 21 22 22 21 17
43 43 43 43 45 46 45 45 43 43 44 45 47 47 49 48 45 38 40 43 44 44 9 11 26 30 29 25 20 31 26 17 18 27 28 24 26 24 25 24 24 22 22 19 22 23 23
42 41 41 42 44 45 45 45 45 44 43 44 45 46 48 45 45 44 44 45 43 30 8 8 27 28 25 25 23 32 29 24 19 11 12 23 26 26 25 22 24 26 26 26 26 24 22
42 42 44 43 43 44 44 44 44 44 44 44 46 46 46 47 41 45 48 43 29 18 13 12 22 23 19 25 28 29 28 27 22 15 11 4 15 20 25 21 23 26 23 21 23 23 20
40 40 40 42 45 45 44 44 44 44 45 45 46 47 45 45 47 46 46 34 24 14 18 19 20 19 15 22 26 26 28 25 26 22 13 7 2 8 13 18 17 24 24 22 17 19 20
40 39 40 40 42 44 43 43 43 44 45 45 46 41 44 44 47 49 39 29 13 17 20 22 18 15 17 22 25 27 24 23 27 24 18 13 10 13 15 15 13 21 23 24 24 23 26
39 39 41 41 43 43 43 44 43 42 43 45 41 41 40 44 49 45 35 27 20 25 26 24 16 20 16 19 17 22 26 29 28 31 34 22 18 16 17 22 19 17 20 23 24 19 18
38 40 41 42 42 42 42 43 41 41 43 44 42 36 38 44 48 39 30 30 25 22 24 25 22 20 22 21 21 19 21 28 29 30 33 30 24 22 25 21 19 21 23 24 23 22 19
41 42 40 40 40 41 41 41 42 43 45 44 40 32 39 48 34 34 32 28 32 23 24 23 26 26 23 23 20 19 18 25 30 30 29 35 33 23 20 23 24 22 22 24 23 18 24
40 40 40 41 42 43 44 43 43 44 44 43 36 35 42 44 30 29 33 35 28 24 25 23 22 24 24 23 19 22 22 28 29 27 28 29 34 26 21 22 21 21 22 23 24 25 25
42 42 42 43 43 44 44 45 45 45 45 45 36 31 36 40 37 32 26 29 34 31 24 25 26 26 26 25 26 22 23 23 30 26 38 32 25 29 27 29 31 29 28 24 24 26 24
43 43 44 44 44 44 44 45 45 45 45 44 36 32 30 31 32 33 32 28 28 30 26 26 25 26 25 24 25 25 26 26 26 30 31 31 24 21 22 24 25 26 28 28 25 23 25
44 44 44 44 45 45 45 45 46 45 46 41 33 34 34 27 27 30 33 28 27 23 28 26 25 24 26 26 25 24 26 27 25 27 29 29 31 30 29 27 26 27 27 28 27 26 22
44 44 45 45 44 44 45 46 46 46 46 40 40 40 38 31 31 32 31 31 29 29 28 26 26 26 26 26 29 32 32 31 30 28 29 29 30 30 24 26 28 26 29 30 26 26 25
45 44 45 45 45 44 45 44 44 46 46 43 41 40 35 29 29 27 27 30 27 26 27 28 28 28 31 36 36 34 32 30 30 30 30 28 28 31 26 30 24 27 36 36 30 26 25
44 45 44 44 45 44 44 45 45 45 44 44 43 40 36 32 30 29 29 32 30 33 33 32 30 30 38 37 33 27 28 28 27 28 29 30 28 29 26 26 27 31 32 37 35 28 26
44 44 45 45 45 45 45 45 45 45 44 43 44 44 41 34 31 28 30 29 29 30 35 34 35 39 39 36 34 25 20 20 20 24 27 26 30 28 27 26 21 27 31 38 35 33 35
44 44 44 44 45 45 45 45 45 45 45 43 40 44 40 36 31 29 29 30 33 33 32 35 38 37 39 34 30 25 22 21 19 22 28 28 28 27 26 28 26 32 35 37 35 37 41
44 44 45 45 45 45 45 45 45 45 45 44 41 44 38 36 35 34 32 31 32 35 32 37 36 36 34 33 30 27 26 22 20 20 32 30 27 28 27 29 25 34 32 33 40 43 41
45 45 45 45 45 45 46 46 45 45 45 44 40 44 43 38 38 41 41 39 34 34 35 38 31 35 34 31 31 29 30 32 24 22 21 21 35 34 31 27 32 33 36 39 39 40 40
Lifted_Index
13 14 14 14 14 14 14 14 14 14 14 14 15 15 14 14 14 14 14 14 14 15 15 15 14 13 12 10 10 10 10 8 6 6 6 6 6 7 7 7 7 7 7 7 6 6 6
13 13 13 13 14 14 14 14 14 14 14 14 15 14 14 14 14 14 14 14 14 14 14 14 14 13 12 10 10 11 10 9 7 7 6 6 6 6 7 7 6 6 6 6 6 6 6
13 13 13 13 13 13 14 14 14 14 14 14 14 14 13 13 13 14 14 14 14 14 13 13 13 13 11 10 11 11 11 10 9 8 7 6 6 7 7 7 6 6 6 5 5 6 6
12 12 12 12 12 13 13 13 13 13 13 13 13 13 12 12 12 12 12 12 13 13 12 12 12 12 11 11 11 11 11 11 10 10 9 8 7 7 7 6 6 5 5 4 4 5 5
11 11 11 11 11 12 12 12 13 13 13 13 12 12 11 11 11 11 11 12 12 12 11 11 11 11 10 10 10 10 10 10 10 10 10 9 8 8 7 6 5 4 4 3 3 4 5
11 11 11 11 11 11 11 12 12 12 12 12 12 11 10 10 10 10 10 11 11 11 10 10 10 10 9 9 8 7 7 7 8 8 9 9 8 7 6 5 4 3 3 2 3 4 4
11 11 11 11 11 10 11 11 11 11 11 11 11 10 9 9 9 9 10 10 10 10 10 10 10 10 9 8 7 6 5 5 6 6 7 7 6 6 5 4 4 4 3 3 3 4 4
10 10 10 11 10 10 10 10 10 10 10 10 10 9 8 8 8 8 9 9 9 9 9 9 9 9 8 8 7 6 5 5 4 5 5 5 5 5 5 4 4 4 4 3 4 4 5
10 10 10 10 10 10 10 10 10 10 10 10 9 9 8 8 8 8 8 9 9 8 8 8 8 8 7 7 6 6 5 4 4 3 4 4 5 5 4 4 4 4 4 4 4 4 4
10 10 10 10 10 9 9 10 10 10 10 10 9 8 8 7 7 7 8 8 8 7 6 6 7 7 6 6 6 6 6 5 4 3 3 3 4 4 3 4 4 4 4 4 4 4 4
10 10 10 10 9 9 9 9 10 10 10 9 9 8 7 7 7 7 7 7 7 5 4 5 6 6 5 5 5 5 5 5 4 3 3 3 3 3 3 3 4 4 4 5 5 4 4
10 10 10 9 9 9 9 9 9 9 9 9 8 8 7 7 6 6 6 6 5 4 3 4 5 4 4 4 4 3 4 5 5 4 3 3 4 3 3 3 4 4 4 4 4 3 3
9 9 9 9 9 8 8 9 9 9 9 9 8 8 7 7 6 6 5 5 4 4 4 4 4 4 4 3 3 3 3 4 4 3 3 3 4 4 4 4 4 4 3 2 2 2 2
9 9 9 8 8 8 8 8 8 8 8 7 7 7 7 6 6 5 5 5 4 4 4 4 4 4 4 3 2 2 3 3 3 3 2 2 3 4 5 5 4 4 3 2 1 1 1
9 9 9 8 8 8 8 7 7 7 6 6 6 6 5 5 4 4 5 5 5 5 5 4 4 4 3 3 3 2 3 3 3 3 3 3 3 4 5 5 5 4 3 2 2 2 1
8 8 8 8 8 8 7 7 6 5 5 4 5 5 4 3 2 3 4 5 5 5 5 4 4 4 3 3 3 3 3 3 3 3 3 3 4 4 5 5 5 4 4 3 3 2 1
8 8 8 8 8 8 7 7 6 5 4 4 4 3 2 1 1 2 3 4 5 5 5 5 4 4 4 4 4 4 4 3 4 3 3 3 3 4 4 4 4 4 4 3 3 2 1
7 7 7 7 8 8 7 7 6 5 4 3 3 3 1 1 1 2 3 4 5 5 5 5 5 5 4 4 4 4 4 4 4 4 4 3 3 3 3 3 3 3 3 3 3 3 2
7 7 7 7 8 7 7 7 6 5 4 3 3 2 1 1 1 2 2 3 4 4 5 5 5 5 5 5 5 5 5 5 5 5 5 4 4 3 3 3 2 3 3 3 2 2 2
7 7 7 7 7 7 7 6 6 5 4 4 3 3 2 1 1 1 2 3 3 4 4 5 5 5 5 4 4 4 4 5 5 5 6 5 5 4 3 2 2 2 2 2 2 2 3
6 7 7 7 7 7 6 6 6 5 5 4 4 4 2 1 1 1 2 2 3 3 4 4 4 4 4 4 4 4 4 5 5 5 5 5 4 4 3 2 2 2 2 2 2 2 2
7 7 7 7 7 6 6 6 5 5 5 5 5 4 3 2 1 1 1 2 2 3 3 3 4 4 3 3 3 3 4 5 5 5 4 4 3 3 3 2 2 2 1 1 1 2 2
7 7 7 6 6 6 6 6 5 5 5 5 5 5 3 2 1 1 1 1 1 2 2 2 2 3 3 3 3 3 4 4 4 4 4 3 3 3 2 1 1 1 1 0 1 1 1
6 6 6 6 6 6 6 6 6 5 5 5 5 5 4 3 2 1 1 1 1 1 1 1 2 2 2 3 3 3 3 4 4 4 4 3 3 3 3 2 1 1 1 0 0 0 0
6 6 6 6 6 6 6 6 5 5 5 5 6 5 4 3 2 1 1 1 0 1 1 1 1 2 3 3 3 3 3 3 3 3 3 3 4 3 3 2 1 1 1 1 0 -0 -0
6 6 6 5 5 5 5 5 5 5 5 5 6 6 5 4 3 2 1 0 0 1 1 1 2 2 3 3 3 3 2 2 2 2 2 3 3 3 3 1 1 1 1 1 0 -0 -1
5 5 5 5 5 5 5 5 5 4 4 5 6 6 5 4 3 3 2 1 1 1 1 2 2 2 3 3 3 3 2 2 2 2 2 2 3 3 2 1 1 0 0 1 0 -0 -0
4 4 4 4 4 4 4 4 4 4 4 4 5 5 5 5 4 3 3 2 2 2 2 2 2 2 3 3 2 2 2 2 2 2 1 1 2 2 1 1 1 0 0 1 1 0 0
4 4 3 3 3 3 3 3 3 3 4 4 5 5 5 5 4 4 4 3 2 2 2 2 2 2 3 3 2 2 2 2 2 2 2 1 1 1 1 1 1 1 1 1 1 1 1